Flag for Norway Weather past 2 weeks in Bodø, Norway

Now
41 °F

Passing clouds.


Feels Like: 30 °F
Forecast: 33 / 36 °F
Wind: 29 mph from East

Location: Bodo Vi

Current Time: Oct 21, 2014 at 9:45:53 AM

Latest Report: Oct 21, 2014 at 8:50 AM


Visibility: N/A

Pressure: 29.59 "Hg

Humidity: 61%

Dew point: 28 °F

Location of BodøLocation

Historic Weather in Bodø — Graph

°F

Bodø temperature yesterday

Maximum temperature yesterday: 43 °F (at 11:50 AM)
Minimum temperature yesterday: 41 °F (at 12:50 AM)
Average temperature yesterday: 41 °F

Past Weeks' High & Low Weather Summary

 TemperatureHumidityPressure
High59 °F (Oct 6, 11:20 AM)100% (Oct 18, 12:50 PM)30.48 "Hg (Oct 18, 12:50 PM)
Low32 °F (Oct 13, 8:20 PM)47% (Oct 7, 2:50 PM)29.39 "Hg (Oct 20, 12:50 AM)
Average42 °F69%29.93 "Hg
* Reported Oct 6 8:20 AM — Oct 21 8:50 AM, Bodø, Weather by CustomWeather, © 2014

Note: Actual official high and low records may vary slightly from our data, if they occured in-between our weather recording intervals... More about our weather records

Advertising

Bodø weather history for previous 24 hours

 ConditionsComfort  
Time TempWeatherWind HumidityBarometerVisibility
8:50 AM
Oct 21
41 °FPassing clouds.29 mph61%29.59 "HgN/A
8:20 AM41 °FPassing clouds.28 mph61%29.59 "HgN/A
7:50 AM41 °FPassing clouds.29 mph61%29.59 "HgN/A
7:20 AM43 °FPassing clouds.26 mph57%29.59 "HgN/A
6:50 AM43 °FPassing clouds.26 mph61%29.59 "HgN/A
6:20 AM41 °FClear.28 mph66%29.59 "Hg10 mi
5:50 AM41 °FClear.28 mph61%29.56 "Hg10 mi
4:50 AM41 °FClear.28 mph61%29.56 "Hg10 mi
3:50 AM41 °FClear.28 mph61%29.56 "Hg10 mi
2:50 AM41 °FClear.31 mph61%29.56 "Hg10 mi
1:50 AM41 °FClear.28 mph61%29.56 "Hg10 mi
12:50 AM41 °FClear.29 mph61%29.53 "Hg10 mi
11:50 PM
Oct 20
41 °FClear.29 mph61%29.53 "Hg10 mi
11:20 PM41 °FClear.29 mph61%29.53 "Hg10 mi
10:50 PM41 °FClear.25 mph61%29.53 "Hg10 mi
10:20 PM41 °FClear.24 mph61%29.53 "Hg10 mi
9:50 PM41 °FClear.28 mph61%29.53 "Hg10 mi
9:20 PM41 °FClear.28 mph61%29.53 "Hg10 mi
8:50 PM41 °FClear.26 mph61%29.53 "Hg10 mi
8:20 PM41 °FClear.28 mph61%29.50 "Hg10 mi
7:50 PM41 °FClear.29 mph61%29.50 "Hg10 mi
7:20 PM41 °FClear.28 mph66%29.50 "Hg10 mi
6:50 PM41 °FClear.26 mph61%29.50 "Hg10 mi
6:20 PM41 °FPassing clouds.24 mph61%29.50 "HgN/A
5:50 PM41 °FScattered clouds.25 mph61%29.50 "HgN/A
5:20 PM41 °FScattered clouds.24 mph61%29.50 "HgN/A
4:50 PM43 °FScattered clouds.23 mph57%29.50 "HgN/A
4:20 PM43 °FScattered clouds.23 mph57%29.50 "HgN/A
3:50 PM43 °FScattered clouds.22 mph57%29.47 "HgN/A
3:20 PM43 °FScattered clouds.23 mph57%29.47 "HgN/A
2:50 PM43 °FScattered clouds.25 mph57%29.47 "HgN/A
2:20 PM43 °FScattered clouds.25 mph57%29.47 "HgN/A
1:50 PM43 °FScattered clouds.28 mph57%29.47 "HgN/A
1:20 PM43 °FPassing clouds.29 mph57%29.45 "HgN/A
12:50 PM43 °FPassing clouds.29 mph57%29.45 "HgN/A
12:20 PM43 °FPassing clouds.29 mph57%29.45 "HgN/A
11:50 AM43 °FScattered clouds.26 mph57%29.45 "HgN/A
11:20 AM41 °FScattered clouds.28 mph61%29.45 "HgN/A
10:50 AM41 °FPartly sunny.28 mph61%29.45 "HgN/A
10:20 AM41 °FPartly sunny.28 mph61%29.42 "HgN/A
9:50 AM41 °FPartly sunny.28 mph61%29.42 "HgN/A
9:20 AM41 °FPartly sunny.29 mph61%29.42 "HgN/A
Weather by CustomWeather, © 2014

See weather overviewHow to use our weather pages